Location: Hagen
(51.3456°N, 7.4557°E)
Time: 22:54:10
(UTC+01:00)

WISE - Visible Passes

Search period start: 18 January 2018 00:00
Search period end: 28 January 2018 00:00
Orbit: 478 x 480 km, 97.4° (Epoch: 17 January)

Date Brightness Start Highest point End Pass type
(mag) Time Alt. Az. Time Alt. Az. Time Alt. Az.
18 Jan ? 19:01:26 22° N 19:01:26 22° N 19:02:54 10° N visible
19 Jan ? 18:34:55 20° NNE 18:34:55 20° NNE 18:36:35 10° N visible
19 Jan ? 20:09:08 16° NW 20:09:08 16° NW 20:10:06 10° NNW visible
20 Jan ? 07:25:13 10° NE 07:27:16 14° E 07:29:18 10° SE visible
20 Jan ? 18:08:22 14° NE 18:08:22 14° NE 18:09:53 10° NNE visible
20 Jan ? 19:42:36 27° NNW 19:42:36 27° NNW 19:44:22 10° NNW visible
21 Jan ? 19:16:02 38° N 19:16:02 38° N 19:18:24 10° N visible
22 Jan ? 18:49:28 32° NE 18:49:28 32° NE 18:52:12 10° N visible
22 Jan ? 20:23:41 18° WNW 20:23:41 18° WNW 20:25:12 10° NW visible
23 Jan ? 07:40:03 10° NE 07:42:48 20° E 07:45:32 10° SE visible
23 Jan ? 18:22:52 19° ENE 18:23:08 20° ENE 18:25:47 10° NNE visible
23 Jan ? 19:57:05 34° WNW 19:57:05 34° WNW 19:59:39 10° NNW visible
24 Jan ? 07:15:26 10° ENE 07:16:34 11° E 07:17:41 10° ESE visible
24 Jan ? 17:56:15 10° ENE 17:57:25 12° ENE 17:58:41 10° NE visible
24 Jan ? 19:30:28 74° NW 19:30:28 74° NW 19:33:49 10° NNW visible
25 Jan ? 19:03:51 47° E 19:04:16 50° ENE 19:07:45 10° N visible
25 Jan ? 20:38:04 15° W 20:38:04 15° W 20:40:04 10° NW visible
26 Jan ? 18:37:11 22° E 18:38:24 27° ENE 18:41:28 10° N visible
26 Jan ? 20:11:24 27° WSW 20:11:42 28° W 20:14:50 10° NW visible
27 Jan ? 07:29:49 10° NE 07:32:06 16° E 07:34:23 10° SE visible
27 Jan ? 18:10:30 10° E 18:12:38 16° ENE 18:14:51 10° NNE visible
27 Jan ? 19:44:43 41° SSW 19:45:36 54° W 19:49:08 10° NNW visible
